Regional Weather Roundup
Issued by NWS

Home | Current Version | Previous Version | Graphics & Text | Print | Product List | Glossary On
Versions: 1 2 3 4 5 6 7 8 9 10 11 12 13 14 15 16 17 18 19 20 21 22 23 24 25 26 27 28 29 30 31 32 33 34 35 36 37 38 39 40 41 42 43 44 45 46 47 48 49 50
000
ASUS43 KLOT 161203
RWRIL

ILLINOIS REGIONAL WEATHER ROUNDUP
NATIONAL WEATHER SERVICE CHICAGO/ROMEOVILLE IL
600 AM CST MON JAN 16 2017

NOTE: "FAIR" INDICATES FEW OR NO CLOUDS BELOW 12,000 FEET WITH NO
SIGNIFICANT WEATHER AND/OR OBSTRUCTIONS TO VISIBILITY.

* THESE STATIONS ARE NOT UNDER NWS QUALITY CONTROL. THEY ALSO MAY NOT
  REPORT WEATHER SUCH AS PRECIPITATION OR FOG.

ILZ001-002-007-009-015-016-024-161300-
NORTHWEST ILLINOIS

CITY           SKY/WX    TMP DP  RH WIND       PRES   REMARKS
MOLINE         LGT RAIN  32  30  92 E10       30.20F FOG     WCI  24
6HR MIN TEMP:  32; 6HR MAX TEMP:  33; 6HR PCP:  0.02;

STERLING*      LGT SNOW  32  30  92 E9        30.24F FOG     WCI  24
SAVANNA*       DRIZZLE   32  30  93 E6        30.24S WCI  26
$$

ILZ003-004-008-010-011-017-018-161300-
NORTH CENTRAL ILLINOIS

CITY           SKY/WX    TMP DP  RH WIND       PRES   REMARKS
ROCKFORD       FRZ RAIN  32  26  78 E5        30.26S WCI  27
6HR MIN TEMP:  30; 6HR MAX TEMP:  32; 6HR PCP:  0.11;

FREEPORT*      MIX PCPN  30  28  90 E3        30.26S
ROCHELLE*      RAIN      32  30  92 E3        30.25R
DE KALB*       CLOUDY    32  29  90 E6        30.24S WCI  26
$$

ILZ005-006-012>014-019>023-161300-
NORTHEAST ILLINOIS

CITY           SKY/WX    TMP DP  RH WIND       PRES   REMARKS
CHICAGO-OHARE  CLOUDY    33  29  85 NE5       30.25F WCI  29
6HR MIN TEMP:  30; 6HR MAX TEMP:  33; 6HR PCP:  0.04;

CHICAGO-MIDWAY CLOUDY    34  27  75 E6        30.26S WCI  29
6HR MIN TEMP:  33; 6HR MAX TEMP:  34; 6HR PCP: TRACE;

AURORA         CLOUDY    33  29  85 CALM      30.26R FOG
6HR MIN TEMP:  31; 6HR MAX TEMP:  33; 6HR PCP:  0.01;

LANSING*       CLOUDY    33  31  94 E5        30.26S WCI  28
JOLIET*        CLOUDY    34  32  91 E5        30.24S FOG     WCI  30
WAUKEGAN       FRZ RAIN  31  29  92 CALM      30.27S FOG
6HR MIN TEMP:  24; 6HR MAX TEMP:  31; 6HR PCP:  0.05;

DUPAGE AIRPORT CLOUDY    33  28  81 NE5       30.24S HAZE    WCI  29
6HR MIN TEMP:  31; 6HR MAX TEMP:  33; 6HR PCP: TRACE;

KANKAKEE*      CLOUDY    32  31  95 CALM      30.26R FOG
WHEELING       FRZ RAIN  32  29  88 CALM      30.27F FOG
6HR MIN TEMP:  28; 6HR MAX TEMP:  32; 6HR PCP:  0.05;

MORRIS*        CLOUDY    32  31  94 SE3       30.24S FOG
ROMEOVILLE*    CLOUDY    33  32  97 E5        30.25R WCI  28
NORTHERLY ISL    N/A     31  29  92 E8          N/A  WCI  24
$$

LMZ740>746-161300-
SOUTHERN LAKE MICHIGAN

STATION/POSITION SKY/WX   TEMP    WIND        PRES    VSBY  WAVE
                          AIR SEA DIR/SP/G                  HT/PER
                          (F)     (DEG/KT/KT) (MB)    (MI)  (FT/S)
HARRISON CRIB              33     110/  6/  7   N/A
BURNHAM HARBOR             32      60/  5       N/A
CALUMET HARBOR             32      50/  4/  6 1024.1F
BURNS HARBOR               34     150/  4/  7 1025.4
MICHIGAN CITY              32      50/  2/  2   N/A
$$

ILZ025>027-034>036-040-047-049-050-058-095>099-161300-
WEST-CENTRAL ILLINOIS

CITY           SKY/WX    TMP DP  RH WIND       PRES   REMARKS
QUINCY         FOG       33  33 100 E9        30.12F VSB 1/4 WCI  25
GALESBURG*     MIX PCPN  32  32 100 E6        30.19S WCI  27
MACOMB*        LGT RAIN  32  32 100 E8        30.20F VSB 1/2 WCI  25
JACKSONVILLE*  FOG       33  33  99 E8        30.16F VSB 1/2 WCI  26
PITTSFIELD*    FOG       34  34 100 E8        30.14F VSB 1/4 WCI  27
$$

ILZ028>032-037-038-041>044-048-051>054-059>061-161300-
CENTRAL ILLINOIS

CITY           SKY/WX    TMP DP  RH WIND       PRES   REMARKS
BLOOMINGTON    FOG       33  33 100 SE8       30.20F VSB 1/2 WCI  26
DECATUR        FOG       34  34 100 E5        30.21S VSB 1/2 WCI  30
PEORIA         LGT RAIN  33  33 100 E8        30.20F VSB 3/4 WCI  26
6HR MIN TEMP:  33; 6HR MAX TEMP:  34; 6HR PCP: TRACE;

LACON*         LGT RAIN  32  32 100 E6        30.22S WCI  26
LINCOLN*       FOG       35  35 100 E5        30.21S VSB 1   WCI  31
SPRINGFIELD    FOG       36  34  92 E8        30.18F VSB 3/4 WCI  30
6HR MIN TEMP:  35; 6HR MAX TEMP:  36;

TAYLORVILLE    FOG       35  34  99 E6        30.18F VSB 1/2 WCI  30
6HR MIN TEMP:  33; 6HR MAX TEMP:  35;

$$

ILZ033-039-045-046-055>057-062-063-161300-
EAST-CENTRAL ILLINOIS

CITY           SKY/WX    TMP DP  RH WIND       PRES   REMARKS
CHAMPAIGN      CLOUDY    34  33  96 E9        30.21F FOG     WCI  27
RANTOUL*       DRIZZLE   35  34  96 E6        30.22F WCI  30
MATTOON        FOG       36  36 100 SE8       30.20F VSB 1/2 WCI  30
PARIS*         CLOUDY    36  36 100 E5        30.23F FOG     WCI  32
$$

ILZ079-100>102-161300-
SOUTHWEST ILLINOIS

CITY           SKY/WX    TMP DP  RH WIND       PRES   REMARKS
ALTON          FOG       37  37 100 E7        30.15F VSB 1   WCI  32
BELLEVILLE     CLOUDY    39  39 100 E5        30.15S FOG
CAHOKIA*       CLOUDY    40  38  93 SE6       30.16S FOG
SPARTA*        FOG       40  40  99 E6        30.16F VSB 1
$$

ILZ064>066-069>071-074>076-080>082-084>086-088>090-092>094-161300-
SOUTH-CENTRAL ILLINOIS

CITY           SKY/WX    TMP DP  RH WIND       PRES   REMARKS
CARBONDALE     FOG       42  42 100 E5        30.16F VSB 1
6HR MIN TEMP:  39; 6HR MAX TEMP:  42;

CAIRO*         FOG       43  43 100 E5        30.16S VSB 1/2
EFFINGHAM*     FOG       38  38 100 E7        30.21F VSB 3/4 WCI  33
MARION         FOG       43  43 100 E3        30.17F VSB 1/2
MT. VERNON     LGT RAIN  41  40  96 E5        30.19S FOG
CENTRALIA*     CLOUDY    41  41 100 E7        30.17F FOG
SALEM*         CLOUDY    41  39  95 E6        30.18F FOG
METROPOLIS*    FOG       44  44  99 CALM      30.18R VSB 1/4
$$

ILZ067-068-072-073-078-083-087-091-161300-
SOUTHEAST ILLINOIS

CITY           SKY/WX    TMP DP  RH WIND       PRES   REMARKS
LAWRENCEVILLE  CLOUDY    40  40 100 E6        30.24S FOG
FLORA*         CLOUDY    40  40  99 E7        30.20F FOG
FAIRFIELD*     FOG       40  40 100 CALM      30.20S VSB 3/4
HARRISBURG*    FOG       42  42 100 E7        30.20S VSB 1/2
ROBINSON*      CLOUDY    38  38  98 E5        30.24S FOG     WCI  35
CARMI*         CLOUDY    41  41 100 CALM      30.20S FOG
$$

ABBREVIATIONS USED IN REMARKS
   TC - TEMPERATURE IN CELSIUS
  WCI - WIND CHILL INDEX
   HX - HEAT INDEX
  VSB - VISIBILITY
$$





USA.gov is the U.S. government's official web portal to all federal, state and local government web resources and services.